Regional Weather Roundup
Issued by NWS Albany, NY

Home | Current Version | Previous Version | Graphics & Text | Print | Product List | Glossary On
Versions: 1 2 3 4 5 6 7 8 9 10 11 12 13 14 15 16 17 18 19 20 21 22 23 24 25 26 27 28 29 30 31 32 33 34 35 36 37 38 39 40 41 42 43 44 45 46 47 48 49 50
000
ASUS41 KALY 260310
RWRALY

NEW YORK STATE HOURLY WEATHER ROUNDUP
NATIONAL WEATHER SERVICE ALBANY NY
1000 PM EST WED FEB 25 2015

NOTE: "FAIR" INDICATES FEW OR NO CLOUDS BELOW 12,000 FEET WITH NO
SIGNIFICANT WEATHER AND/OR NO OBSTRUCTIONS TO VISIBILITY.

NYZ032-033-038>043-046>054-057>066-NYZ062>081-260400-
EAST


CITY           SKY/WX    TMP DP  RH WIND       PRES   REMARKS
ALBANY         FAIR      15   1  53 W6        30.06R WCI   6
GLENS FALLS    FAIR      14   1  56 SW6       30.02R WCI   5
POUGHKEEPSIE   FAIR      24   2  38 N6        30.03R WCI  17
NEWBURGH       CLEAR     23   5  46 VRB3      30.01R
MONTGOMERY     FAIR      20   4  50 CALM      29.99R
WHITE PLAINS   FAIR      22   8  55 CALM      29.98R
ISLIP          MOCLDY    27  15  61 CALM      29.99R
NEW YORK CITY  MOCLDY    34  17  50 NW7       29.99R WCI  28
CENTRAL PARK   FAIR      34  14  43 MISG      30.01R
$$

NYZ005>009-017-018-044>046-055-056-260400-
CENTRAL


CITY           SKY/WX    TMP DP  RH WIND       PRES   REMARKS
FULTON         LGT SNOW  13   9  84 CALM      30.08R FOG
SYRACUSE       MOCLDY    13   1  59 W9        30.08R WCI   1
ROME           CLOUDY    12   6  77 NW12      30.09R WCI  -2
ELMIRA         FAIR      11   0  61 E5        30.03R WCI   3
BINGHAMTON     FAIR       9  -4  55 N9        29.95R WCI  -4
MONTICELLO     FAIR      18  -2  41 W7        29.96R WCI   8
$$

NYZ026>034-041>043-260400-
NORTH


CITY           SKY/WX    TMP DP  RH WIND       PRES   REMARKS
WATERTOWN      FAIR      -3 -10  72 CALM      30.10R
FORT DRUM      NOT AVBL
MASSENA        MOCLDY     7 -10  46 W3        30.09R
SARANAC LAKE   MOCLDY     5  -2  72 W5        29.89R WCI  -4
PLATTSBURGH    CLOUDY    13   0  56 NW9       30.04R WCI   1
$$

NYZ001>004-010>016-019>021-260400-
WEST


CITY           SKY/WX    TMP DP  RH WIND       PRES   REMARKS
NIAGARA FALLS  CLOUDY    10   1  67 SW7       30.08R WCI  -1
BUFFALO        MOCLDY     8   0  69 SW8       30.07R WCI  -4
DUNKIRK        FAIR       1  -4  79 CALM      30.08F
JAMESTOWN      FAIR       3  -2  78 N7        29.94F WCI  -9
WELLSVILLE     FAIR       6  -3  66 N6        29.93S WCI  -4
ROCHESTER      CLOUDY    10   1  67 W6        30.09R WCI   0
PENN YAN       FAIR      10  -2  58 W3        30.04R
$$

             KEY
       WCI = WIND CHILL INDEX
       VSB = VISIBILITY
       HX  = HEAT INDEX
$$


USA.gov is the U.S. government's official web portal to all federal, state and local government web resources and services.